Showing default

ANSER-LS, 62644

Orbit data source: Space-Track

ANSER-LS, 62644 is a payload satellite owned by INTA (ES) in SSO that was launched on Tue, 14 Jan 2025 UTC via an FALCON 9 launch vehicle from the Air Force Western Test Range (AFWTR). Payload-class satellites include a variety of spacecraft equipped with specific instruments for various scientific and technological missions. These include communications satellites like Starlink; space stations such as the ISS; scientific satellites like the Hubble; Earth observation satellites from companies like Planet Labs, Umbra, and HawkEye 360; GPS; miniature CubeSats for education and research; and military/defense satellites.

Loading next visibility...
Identifier
62644, 2025-009AM
Orbit
SSO
Country
Flag of ESES / SPN
Related business
Manufacturer
INTA
Mission
Operational Commercial Imaging
Bus & Motor
CUBESAT 3U, Unknown motor
Mass
4 kg wet, 4 kg dry
Launch date (UTC)
2025-01-14 (8 months ago)
Launch vehicle
FALCON 9
Launch site
Air Force Western Test Range (AFWTR)
Object type
Payload
Rocket body
Debris
Shape & HBR
Box + 2 Pan, 0.1 m
Radar Cross Section
0.080 m², Small (<0.1 m²)

Expand to show TLE details & history
Last TLE update: 14 hours ago

TLE from 14 hours ago
0 ANSER-LS
1 62644U 25009AM  25259.17281328  .00021230  00000-0  81247-3 0  9996
2 62644  97.4281 339.0660 0002710 154.0483 206.0892 15.26585391 37155
Epoch: 2025-09-16T04:08Z
TLE epoch observation values (Epoch: 2025-09-16T04:08:51.067Z)
Latitude
-0.00002°
Longitude
-78.5137°
Altitude
490.799 km
Speed
7.619 km/s
True Right ascension
22h 36m 15s
True Declination
0° 00' 00"
Sunlit
Object was in full shadow at epoch
Visualization orbit readout
Latitude
Unknown
Longitude
Unknown
Altitude
Unknown
Speed
Unknown
Apparent Right ascension
Unknown
Apparent Declination
Unknown
Sunlit
N/A
Visualization observer readout
Local Sidereal Time
10:28:33
Azimuth
Unknown
Elevation
Unknown
Doppler factor
Unknown
Orbital elements
Apogee altitude
484.846 km
Perigee altitude
481.128 km
Semi-major axis
6,861.124 km
Eccentricity
0.00027
Inclination
97.4281°
RAAN
339.066°
Arg. of periapsis
154.0483°
True anomaly
206.07555°
Mean anomaly
206.0892°
Eccentric anomaly
206.08237°
Mean motion
3.81901 °/min
Orbital period
94.27 mins
BSTAR
0.00081247
Loading maneuver chart data...
Computing Atmospheric mass density...
Loading historical data...
Loading historical data...
Loading historical data...
Loading historical data...
Loading historical data...
Loading historical data...
Loading historical data...

Documentation

Showing up to 5 results
|